COSMOS 249 DEB, 18602

Orbit data source: Space-Track

COSMOS 249 DEB, 18602 is space debris in LEO originally from a launch on Sun, 20 Oct 1968 UTC launched from the Tyuratam Missile And Space Complex (TTMTR). Debris objects in space refer to the collection of defunct objects orbiting the Earth. Examples of debris include non-operational satellites, rocket bodies, and fragments generated from explosions, collisions, or faulty payload assembly.

Loading next visibility...
Identifier
18602, 1968-091DG
Orbit
LEO
Country
Flag of CISCIS
Related business
Manufacturer
Unknown
Mission
Spacecraft
Bus & Motor
Unknown
Mass
Unknown
Launch date (UTC)
1968-10-20 (58 years ago)
Launch vehicle
Unknown
Launch site
Tyuratam Missile And Space Complex (TTMTR)
Object type
Payload
Rocket body
Debris
Shape & HBR
Unknown shape, 0.1 m
Radar Cross Section
Medium (>0.1 m² and <1 m²)

Expand to show TLE details & history
Last TLE update: 2 days ago

TLE from 2 days ago
0 COSMOS 249 DEB
1 18602U 68091DG  26220.93895506  .00000730  00000-0  90361-3 0  9990
2 18602  62.2372  51.6935 0621869 266.4639 248.3101 13.09716996652416
Epoch: 2026-08-08T22:32Z
TLE epoch observation values (Epoch: 2026-08-08T22:32:05.717Z)
Latitude
27.7227°
Longitude
-79.75229°
Altitude
1,425.625 km
Speed
7.057 km/s
True Right ascension
14h 22m 51s
True Declination
27° 35' 36"
Sunlit
Object was in daylight at epoch
Visualization orbit readout
Latitude
Unknown
Longitude
Unknown
Altitude
Unknown
Speed
Unknown
Apparent Right ascension
Unknown
Apparent Declination
Unknown
Sunlit
N/A
Visualization observer readout
Local Sidereal Time
17:15:38
Azimuth
Unknown
Elevation
Unknown
Doppler factor
Unknown
Orbital elements
Apogee altitude
1,695.948 km
Perigee altitude
750.536 km
Semi-major axis
7,601.379 km
Eccentricity
0.06219
Inclination
62.2372°
RAAN
51.6935°
Arg. of periapsis
266.4639°
True anomaly
241.88709°
Mean anomaly
248.3101°
Eccentric anomaly
245.07881°
Mean motion
3.27495 °/min
Orbital period
109.93 mins
BSTAR
0.00090361
Loading maneuver chart data...
Computing Atmospheric mass density...

Documentation

Showing up to 5 results
|